[[{"header":{"parameterUnit":"m.s-1","parameterCategory":1,"la1":30.2991,"la2":30.254,"lo1":-89.0895,"lo2":-89.0444,"dy":0.0017,"dx":0.0017,"nx":28,"ny":28,"refTime":"2024-12-26T09:00:00:Z","depth":0,"parameterNumber":2,"parameterNumberName":"U-component_of_WINDS"},"data":[0,0,0,0,0,0,0,0,0,0,0,0,0,0,0,0,0,0,0,0,0,0,0,0,0,0,0,0,0,0,0,0,0,0,0,0,0,0,0,0,0,0,0,0,0,0,0,0,0,0,0,0,0,0,0,0,0,0,-0.9365,-0.9366,0,-0.9489,-0.949,-0.9492,-0.9542,-0.9542,-0.9541,-0.9541,-0.9668,-0.9672,-0.9675,0,0,0,0,0,0,0,0,0,0,0,0,0,-0.9171,-0.9174,-0.9365,-0.9366,-0.9368,-0.9489,-0.949,-0.9492,-0.9542,-0.9542,-0.9541,-0.9541,-0.9667,-0.9671,-0.9676,0,0,0,0,0,0,0,0,0,0,0,0,0,-0.9271,-0.9175,-0.9364,-0.9407,-0.9412,-0.9488,-0.949,-0.9492,-0.9542,-0.9542,-0.9541,-0.9541,-0.9665,-0.9671,-0.9676,-0.9719,0,0,-0.9693,-0.9695,0,0,0,0,0,0,0,0,-0.9265,-0.9278,-0.9399,-0.9404,-0.941,-0.95,-0.9469,-0.9568,-0.9542,-0.9493,-0.9541,-0.9541,-0.9612,-0.9622,-0.9646,-0.9725,-0.973,-0.9693,-0.9697,-0.9699,-0.9701,0,0,0,0,0,0,0,-0.9258,-0.9273,-0.9414,-0.9401,-0.9408,-0.942,-0.9434,-0.9488,-0.9553,-0.9497,-0.9501,-0.9515,-0.9615,-0.9641,-0.965,-0.9732,-0.9693,-0.9698,-0.9701,-0.9704,-0.9851,-0.9852,0,0,0,0,0,0,-0.9244,-0.9267,-0.941,-0.9418,-0.9335,-0.9424,-0.944,-0.9471,-0.9553,-0.9565,-0.9515,-0.9517,-0.9632,-0.9643,-0.9654,-0.9709,-0.9699,-0.9704,-0.9707,-0.985,-0.9851,-0.9852,0,0,0,0,0,0,-0.924,-0.9257,-0.9405,-0.9343,-0.9363,-0.9428,-0.9463,-0.9474,-0.95,-0.9567,-0.9579,-0.953,-0.9632,-0.9647,-0.9702,-0.9715,-0.9707,-0.9712,-0.985,-0.9851,-0.9852,-0.982,0,0,0,0,0,0,-0.9234,-0.9255,-0.9271,-0.9343,-0.9366,-0.9451,-0.9464,-0.9477,-0.9509,-0.9512,-0.9583,-0.9595,-0.9633,-0.9694,-0.9708,-0.9722,-0.9716,-0.9849,-0.985,-0.9851,-0.982,-0.9819,-0.9819,0,0,0,0,0,-0.9227,-0.9257,-0.9272,-0.9289,-0.9389,-0.9451,-0.9464,-0.9508,-0.951,-0.9527,-0.957,-0.9592,-0.9711,-0.9699,-0.9715,-0.9731,-0.9848,-0.985,-0.9851,-0.982,-0.9819,-0.9819,0,0,0,0,0,0,-0.9185,-0.9268,-0.9285,-0.9339,-0.9388,-0.9459,-0.9483,-0.9505,-0.9554,-0.9555,-0.9607,-0.9623,-0.9674,-0.9708,-0.9694,-0.9776,-0.9781,-0.9786,-0.9752,-0.9752,-0.9752,-0.9742,-0.972,0,0,0,0,0,-0.9182,-0.9226,-0.9296,-0.9337,-0.9361,-0.9417,-0.9446,-0.9475,-0.9528,-0.9549,-0.9596,-0.9646,-0.9694,-0.9725,-0.9774,-0.9825,-0.9841,-0.9844,-0.9843,-0.9843,-0.9846,-0.9876,-0.9878,-0.9857,-0.9857,-0.9856,0,0,-0.9177,-0.9227,-0.9252,-0.933,-0.9371,-0.9416,-0.9434,-0.9481,-0.9514,-0.9556,-0.9611,-0.9647,-0.9706,-0.976,-0.9786,-0.979,-0.9856,-0.9845,-0.9843,-0.9847,-0.9878,-0.9879,-0.9881,-0.9858,-0.9857,-0.9857,0,0,-0.919,-0.9232,-0.9271,-0.9312,-0.9374,-0.9411,-0.9421,-0.9489,-0.9515,-0.9571,-0.9603,-0.9644,-0.9726,-0.9767,-0.9799,-0.9827,-0.9849,-0.9841,-0.9838,-0.9867,-0.9869,-0.987,-0.988,-0.9883,-0.9844,-0.9844,-0.9844,0,-0.9175,-0.9243,-0.9289,-0.9333,-0.9366,-0.9406,-0.9446,-0.9484,-0.9558,-0.958,-0.9584,-0.9688,-0.9731,-0.9795,-0.9801,-0.9826,-0.9838,-0.9833,-0.9865,-0.9867,-0.9869,-0.9879,-0.9883,-0.9843,-0.9843,-0.9843,-0.9843,0,-0.9222,-0.9269,-0.9293,-0.9364,-0.94,-0.9442,-0.9494,-0.9525,-0.9551,-0.9588,-0.9645,-0.9697,-0.9757,-0.9774,-0.98,-0.9842,-0.9842,-0.9855,-0.986,-0.9869,-0.9879,-0.9883,-0.9841,-0.9841,-0.9842,-0.9842,0,0,-0.9212,-0.9307,-0.9315,-0.9348,-0.9419,-0.9456,-0.95,-0.9558,-0.9584,-0.9634,-0.9672,-0.9741,-0.9752,-0.9788,-0.9819,-0.9844,-0.9862,-0.9853,-0.9856,-0.9853,-0.9912,-0.9902,-0.9905,-0.9878,-0.9879,-0.9879,-0.9906,0,-0.9234,-0.9314,-0.9356,-0.9418,-0.9462,-0.95,-0.9538,-0.9586,-0.9622,-0.9664,-0.9704,-0.9751,-0.9764,-0.9785,-0.9812,-0.9854,-0.9875,-0.9853,-0.9913,-0.9915,-0.9897,-0.9911,-0.9901,-0.9924,-0.9911,-0.9912,-0.9912,0,-0.927,-0.932,-0.9386,-0.9452,-0.9472,-0.9505,-0.9562,-0.9602,-0.9657,-0.9681,-0.9721,-0.9751,-0.9799,-0.9801,-0.9867,-0.9852,-0.9879,-0.9903,-0.9905,-0.9913,-0.9914,-0.9918,-0.9932,-0.9936,-0.9919,-0.9918,-0.9918,0,-0.9256,-0.9339,-0.9389,-0.9416,-0.9494,-0.9517,-0.9551,-0.9605,-0.9638,-0.9687,-0.9709,-0.9763,-0.9793,-0.9835,-0.9879,-0.9877,-0.9941,-0.9947,-0.9962,-0.9961,-0.9974,-0.9972,-0.9992,-0.9991,-0.9991,-0.9991,-0.9991,0,-0.9276,-0.9315,-0.9384,-0.9415,-0.946,-0.9508,-0.9551,-0.9588,-0.9636,-0.9675,-0.9711,-0.9747,-0.9803,-0.9846,-0.9881,-0.993,-0.9943,-0.9964,-0.9973,-0.9961,-0.9958,-0.9979,-0.9979,-0.9992,-0.9992,-0.9992,-0.9992,0,-0.9267,-0.9315,-0.9373,-0.9442,-0.9461,-0.949,-0.955,-0.9582,-0.9619,-0.9668,-0.9682,-0.9741,-0.9793,-0.9841,-0.9911,-0.9934,-0.9984,-0.9995,-0.9965,-0.997,-0.9983,-0.9981,-1.0017,-1.0024,-1.0018,-1.0018,-1.0018,0,-0.9277,-0.9308,-0.9381,-0.9409,-0.9442,-0.9488,-0.9521,-0.957,-0.9603,-0.9668,-0.9691,-0.9746,-0.9793,-0.9874,-0.9923,-0.9976,-0.9989,-0.9998,-0.9997,-0.9984,-0.9989,-0.9987,-0.999,-0.9997,-0.9997,-0.9997,-0.9997,0,-0.9289,-0.9311,-0.9358,-0.9412,-0.9451,-0.9496,-0.9543,-0.9564,-0.9622,-0.9657,-0.9711,-0.9747,-0.9818,-0.9872,-0.993,-0.9965,-0.999,-0.9996,-1.0003,-0.9991,-0.9972,-0.9982,-0.9963,-0.9995,-0.9996,-0.9996,-0.9996,-0.9996,-0.929,-0.9319,-0.9375,-0.9426,-0.9466,-0.9509,-0.9542,-0.9583,-0.9629,-0.969,-0.9716,-0.9771,-0.9825,-0.9906,-0.9941,-0.9984,-0.999,-0.9999,-1.0001,-1.0003,-1.0,-0.9965,-0.9995,-0.9995,-0.9995,-0.9995,-0.9995,0,-0.9304,-0.9342,-0.9388,-0.9452,-0.9492,-0.9512,-0.9565,-0.9596,-0.9644,-0.9692,-0.9737,-0.9799,-0.9851,-0.9904,-0.9959,-0.9984,-0.9997,-0.9997,-0.9995,-1.0003,-0.9992,-0.9981,-0.9985,-0.9985,-0.9985,-0.9985,-0.9985,-0.9985,-0.9316,-0.9367,-0.9395,-0.9466,-0.9504,-0.9557,-0.9585,-0.9625,-0.9664,-0.9731,-0.9775,-0.9809,-0.9859,-0.9919,-0.9967,-0.9982,-1.0,-0.9997,-1.0014,-1.0003,-1.0004,-1.0004,-0.9994,-1.0001,-1.0001,-1.0022,-1.0022,-1.0022]},{"header":{"parameterUnit":"m.s-1","parameterCategory":1,"la1":30.2991,"la2":30.254,"lo1":-89.0895,"lo2":-89.0444,"dy":0.0017,"dx":0.0017,"nx":28,"ny":28,"refTime":"2024-12-26T09:00:00:Z","depth":0,"parameterNumber":3,"parameterNumberName":"V-component_of_WINDS"},"data":[0,0,0,0,0,0,0,0,0,0,0,0,0,0,0,0,0,0,0,0,0,0,0,0,0,0,0,0,0,0,0,0,0,0,0,0,0,0,0,0,0,0,0,0,0,0,0,0,0,0,0,0,0,0,0,0,0,0,2.4166,2.4168,0,2.4336,2.4338,2.4339,2.4393,2.4393,2.4392,2.4391,2.4566,2.4572,2.4577,0,0,0,0,0,0,0,0,0,0,0,0,0,2.3892,2.3897,2.4166,2.4168,2.417,2.4335,2.4338,2.434,2.4394,2.4393,2.4392,2.4391,2.4565,2.4571,2.4578,0,0,0,0,0,0,0,0,0,0,0,0,0,2.4031,2.3898,2.4165,2.4217,2.4223,2.4335,2.4338,2.4341,2.4394,2.4393,2.4391,2.439,2.4563,2.457,2.4578,2.4652,0,0,2.4603,2.4607,0,0,0,0,0,0,0,0,2.4023,2.4041,2.4207,2.4213,2.4221,2.4342,2.4305,2.4445,2.4394,2.4329,2.4391,2.439,2.4493,2.4507,2.4541,2.466,2.4668,2.4604,2.4609,2.4612,2.4615,0,0,0,0,0,0,0,2.4013,2.4034,2.4233,2.4209,2.4218,2.4232,2.4251,2.4332,2.4416,2.4335,2.4339,2.4358,2.4496,2.4533,2.4546,2.467,2.4604,2.4611,2.4616,2.4619,2.4862,2.4864,0,0,0,0,0,0,2.3995,2.4026,2.4228,2.4238,2.4117,2.4238,2.4259,2.4304,2.4415,2.443,2.4359,2.436,2.452,2.4536,2.4552,2.4648,2.4612,2.462,2.4625,2.4861,2.4863,2.4864,0,0,0,0,0,0,2.3989,2.4012,2.4221,2.4133,2.4161,2.4244,2.4295,2.4308,2.4345,2.4433,2.4449,2.4381,2.452,2.4541,2.4628,2.4655,2.4624,2.4631,2.4859,2.4861,2.4863,2.4839,0,0,0,0,0,0,2.398,2.401,2.4037,2.4133,2.4165,2.4292,2.4296,2.4312,2.4359,2.4362,2.4458,2.4473,2.452,2.4615,2.4636,2.4666,2.4637,2.4857,2.486,2.4863,2.4838,2.484,2.4842,0,0,0,0,0,2.397,2.4024,2.4039,2.4063,2.4202,2.4294,2.4312,2.4365,2.4361,2.439,2.4447,2.447,2.4648,2.4624,2.4647,2.468,2.4855,2.4859,2.4862,2.4837,2.484,2.4842,0,0,0,0,0,0,2.3929,2.4037,2.4055,2.414,2.4208,2.4303,2.4342,2.4366,2.4437,2.4436,2.45,2.4521,2.4604,2.465,2.4621,2.4759,2.4753,2.4761,2.4725,2.4729,2.4731,2.4719,2.4644,0,0,0,0,0,2.3929,2.3994,2.4086,2.4152,2.4185,2.4257,2.4299,2.4335,2.4407,2.4436,2.4499,2.4569,2.4641,2.4687,2.4758,2.4844,2.4868,2.4879,2.4881,2.4882,2.489,2.4942,2.4948,2.4876,2.4876,2.4876,0,0,2.3932,2.3999,2.4036,2.4146,2.4202,2.4269,2.4281,2.4351,2.4402,2.4447,2.4533,2.4582,2.4665,2.4752,2.4794,2.4793,2.4915,2.4887,2.4888,2.4894,2.4946,2.4953,2.4959,2.4879,2.4878,2.4878,0,0,2.3971,2.4027,2.409,2.4146,2.4231,2.4279,2.4294,2.4387,2.4421,2.4509,2.4544,2.4606,2.4728,2.4787,2.4832,2.4896,2.492,2.4917,2.493,2.4979,2.4985,2.4991,2.5016,2.5024,2.4923,2.4923,2.4923,0,2.3963,2.4065,2.4119,2.4188,2.4237,2.428,2.4346,2.4398,2.4502,2.4535,2.4533,2.4689,2.4747,2.4851,2.4866,2.4901,2.4922,2.4907,2.498,2.4986,2.4992,2.5016,2.5025,2.4922,2.4923,2.4923,2.4923,0,2.4053,2.4123,2.4164,2.4264,2.4316,2.4383,2.4449,2.4497,2.4527,2.4576,2.4666,2.4738,2.4826,2.4853,2.4883,2.4961,2.4959,2.4967,2.4963,2.4997,2.5021,2.5031,2.4921,2.4922,2.4922,2.4922,0,0,2.407,2.42,2.4214,2.4262,2.4359,2.4415,2.4485,2.4571,2.4611,2.4682,2.4743,2.4847,2.4856,2.4908,2.4945,2.4989,2.5038,2.4993,2.4996,2.5001,2.5131,2.5126,2.5136,2.5054,2.5056,2.5057,2.5125,0,2.4123,2.4249,2.4301,2.4404,2.4471,2.4514,2.4575,2.4643,2.469,2.4755,2.4808,2.4882,2.4887,2.4919,2.4964,2.5022,2.5065,2.5018,2.5114,2.5117,2.5094,2.5148,2.5142,2.5203,2.5135,2.5137,2.5138,0,2.4202,2.4274,2.4383,2.4475,2.4505,2.4559,2.4644,2.4704,2.4782,2.4814,2.4873,2.4909,2.4985,2.4975,2.5083,2.505,2.5092,2.5127,2.5131,2.5143,2.513,2.5164,2.5223,2.5233,2.5153,2.5152,2.5151,0,2.4207,2.4331,2.4413,2.4451,2.456,2.4598,2.4645,2.4722,2.4771,2.4844,2.4878,2.4959,2.5004,2.5067,2.5125,2.5111,2.5228,2.5222,2.5259,2.5257,2.5283,2.5281,2.5351,2.5306,2.5306,2.5306,2.5306,0,2.4263,2.4328,2.4417,2.4468,2.4543,2.4603,2.4677,2.4727,2.4796,2.4858,2.49,2.4958,2.5029,2.5097,2.5142,2.5227,2.5246,2.5275,2.5287,2.5273,2.527,2.5303,2.5301,2.5308,2.5308,2.5307,2.5307,0,2.4281,2.4343,2.4436,2.4532,2.4557,2.4609,2.4692,2.4744,2.4794,2.4872,2.4894,2.4973,2.5055,2.5119,2.5225,2.5256,2.5346,2.5357,2.5319,2.5326,2.536,2.5357,2.5456,2.5474,2.5414,2.5415,2.5415,0,2.4314,2.4365,2.4467,2.4512,2.4559,2.463,2.4681,2.4742,2.4793,2.4888,2.4929,2.5013,2.5085,2.5214,2.5282,2.5364,2.5379,2.5408,2.5392,2.5377,2.5383,2.538,2.5387,2.5411,2.5411,2.5412,2.5412,0,2.4365,2.4394,2.4465,2.4547,2.4606,2.4674,2.4743,2.4778,2.4852,2.4907,2.4992,2.5047,2.5157,2.5241,2.5331,2.5381,2.541,2.5416,2.543,2.5417,2.5394,2.541,2.5327,2.5414,2.5414,2.5414,2.5414,2.5414,2.4394,2.4443,2.4523,2.4601,2.466,2.4723,2.4778,2.4835,2.4906,2.5,2.5032,2.512,2.5199,2.5322,2.5373,2.5444,2.5445,2.5464,2.5469,2.5473,2.5473,2.5381,2.546,2.546,2.546,2.546,2.546,0,2.445,2.4504,2.4575,2.4671,2.4733,2.4754,2.4832,2.4883,2.4959,2.5031,2.51,2.5199,2.5282,2.5356,2.5443,2.5485,2.5501,2.5506,2.5505,2.5516,2.5466,2.5447,2.5492,2.5492,2.5492,2.5492,2.5492,2.5492,2.4487,2.4572,2.461,2.4725,2.4779,2.4865,2.4908,2.4968,2.5026,2.5134,2.5203,2.5251,2.5324,2.5417,2.5495,2.5515,2.5546,2.5548,2.5572,2.5523,2.552,2.5516,2.5498,2.5554,2.5554,2.5617,2.5617,2.5618]}]]